This is the latest recevied weather packets stored in our database for station/object LZ1HCO-25. If no packets are shown the sender has not sent any weather packets the latest 10 day(s).
| Time | Temp. | Humidity | Pressure | Rain* | Wind** | Luminosity | Snow |
|---|---|---|---|---|---|---|---|
| 1777928040 | 11.67° C | 99% | 970 hPa | - | - | 0 W/m² | - |
| 1777927729 | 11.67° C | 99% | 970 hPa | - | - | 0 W/m² | - |
| 1777927417 | 12.22° C | 99% | 970 hPa | - | - | 0 W/m² | - |
| 1777927106 | 12.22° C | 99% | 970 hPa | - | - | 0 W/m² | - |
| 1777926795 | 11.67° C | 99% | 970 hPa | - | - | 0 W/m² | - |
| 1777926483 | 11.67° C | 99% | 971 hPa | - | - | 0 W/m² | - |
| 1777926172 | 11.67° C | 99% | 971 hPa | - | - | 0 W/m² | - |
| 1777925860 | 11.67° C | 99% | 971 hPa | - | - | 0 W/m² | - |
| 1777925549 | 12.22° C | 99% | 970 hPa | - | - | 0 W/m² | - |
| 1777925238 | 12.22° C | 99% | 970 hPa | - | - | 0 W/m² | - |
| 1777924926 | 11.67° C | 99% | 970 hPa | - | - | 0 W/m² | - |
| 1777924615 | 11.11° C | 99% | 970 hPa | - | - | 0 W/m² | - |
| 1777924304 | 11.67° C | 99% | 970 hPa | - | - | 0 W/m² | - |
| 1777923992 | 12.78° C | 91% | 970 hPa | - | - | 0 W/m² | - |
| 1777923681 | 12.78° C | 89% | 970 hPa | - | - | 0 W/m² | - |
| 1777923370 | 12.78° C | 87% | 970 hPa | - | - | 0 W/m² | - |
| 1777923058 | 12.78° C | 86% | 970 hPa | - | - | 0 W/m² | - |
| 1777922747 | 12.78° C | 88% | 970 hPa | - | - | 0 W/m² | - |
| 1777922436 | 12.78° C | 86% | 970 hPa | - | - | 0 W/m² | - |
| 1777922124 | 13.33° C | 86% | 970 hPa | - | - | 0 W/m² | - |
| 1777921813 | 12.78° C | 89% | 970 hPa | - | - | 0 W/m² | - |
| 1777921501 | 12.78° C | 90% | 970 hPa | - | - | 0 W/m² | - |
| 1777921190 | 12.78° C | 82% | 970 hPa | - | - | 0 W/m² | - |
| 1777920879 | 13.33° C | 82% | 970 hPa | - | - | 0 W/m² | - |
| 1777920567 | 13.33° C | 82% | 970 hPa | - | - | 0 W/m² | - |
* Rain since midnight (hover to see other rain measurements)
** Current wind speed in m/s (hover to see current wind gust speed)